Location: Downe
(51.3167°N, 0.0500°E)
Time: 15:04:17
(UTC+00:00)

N. Korean satellite - Visible Passes

Search period start: 29 January 2020 00:00
Search period end: 08 February 2020 00:00
Orbit: 454 x 507 km, 97.2° (Epoch: 28 January)

Date Brightness Start Highest point End Pass type
(mag) Time Alt. Az. Time Alt. Az. Time Alt. Az.
29 Jan 7.8 05:34:38 10° NNE 05:38:06 43° E 05:41:35 10° S visible
29 Jan 9.6 17:49:20 10° SW 17:51:52 19° W 17:54:25 10° NW visible
30 Jan 9.1 05:09:29 10° NE 05:12:28 24° E 05:15:28 10° SSE visible
30 Jan 7.3 06:42:40 10° N 06:45:54 32° WNW 06:49:10 10° SW visible
30 Jan 8.4 17:23:00 10° SSW 17:26:11 35° W 17:29:25 10° NNW visible
31 Jan 9.9 04:44:55 10° ENE 04:46:44 13° E 04:48:35 10° ESE visible
31 Jan 6.6 06:16:56 10° N 06:20:29 60° WNW 06:24:05 10° SSW visible
01 Feb 6.9 05:51:22 10° NNE 05:55:00 70° ESE 05:58:39 10° S visible
01 Feb 10.0 18:07:13 10° WSW 18:08:52 13° W 18:10:31 10° WNW visible
02 Feb 8.3 05:26:02 10° NNE 05:29:25 35° E 05:32:49 10° SSE visible
02 Feb 7.8 06:59:47 10° NNW 07:02:39 22° WNW 07:05:33 10° WSW visible
02 Feb 9.3 17:40:17 10° SSW 17:43:07 23° W 17:45:59 10° NW visible
03 Feb 9.4 05:01:00 10° NE 05:03:45 20° E 05:06:30 10° SE visible
03 Feb 7.0 06:33:52 10° N 06:37:17 39° WNW 06:40:44 10° SW visible
04 Feb 10.2 04:36:55 10° ENE 04:37:59 11° E 04:39:03 10° ESE visible
04 Feb 6.5 06:08:11 10° N 06:11:50 76° WNW 06:15:31 10° SSW visible
05 Feb 7.3 05:42:42 10° NNE 05:46:19 55° E 05:49:57 10° S visible
05 Feb 9.8 17:57:52 10° SW 18:00:05 16° W 18:02:19 10° NW visible
06 Feb 8.7 05:17:27 10° NNE 05:20:42 29° E 05:23:59 10° SSE visible
06 Feb 7.6 06:50:55 10° N 06:54:02 27° WNW 06:57:11 10° SW visible
06 Feb 8.9 17:31:18 10° SSW 17:34:21 29° W 17:37:29 10° NNW visible
07 Feb 9.7 04:52:35 10° NE 04:55:00 17° E 04:57:26 10° SE visible
07 Feb 6.8 06:25:05 10° N 06:28:39 48° WNW 06:32:13 10° SW visible
